Tracking 19854 objects as of 21-Sep-2019
HD Live streaming from Space Station
objects crossing your sky now

METEOR 2-11 DEB

Track METEOR 2-11 DEB now!
10-day predictions


NORAD ID: 40704
Int'l Code: 1984-072F
Perigee: 921.5 km
Apogee: 958.5 km
Inclination: 82.5 °
Period: 103.7 minutes
Semi major axis: 7310 km
RCS: Unknown
Launch date: July 5, 1984
Source: Commonwealth of Independent States (former USSR) (CIS)
Launch site: PLESETSK MISSILE AND SPACE COMPLEX (PKMTR)

Note: This is SATELLITE DEBRIS
aabbcc
Your satellite tracking list
Your tracking list is empty




NASA's NSSDC Master Catalog

Two Line Element Set (TLE):
1 40704U 84072F   19263.10378410 +.00000944 +00000-0 +76786-3 0  9995
2 40704 082.5237 194.9522 0025261 118.7000 241.6706 13.88793482224781
Source of the keplerian elements: AFSPC